Location: ??????????
(54.7560°N, 39.1389°E)
Time: 01:09:24
(UTC+00:00)

Cosmos 2360 Rocket - Pass Details

Date: 19 May 2025
Orbit: 834 x 842 km, 71.0° (Epoch: 13 June)

Event Time Altitude Azimuth Distance (km) Brightness Sun altitude
Rises 19:42:37 0° 325° (NW) 3,396 7.2 -12.4°
Reaches altitude 10° 19:45:13 10° 333° (NNW) 2,459 6.1 -12.6°
Maximum altitude 19:50:33 42° 44° (NE) 1,182 3.2 -12.9°
Drops below altitude 10° 19:55:52 10° 115° (ESE) 2,448 4.2 -13.2°
Enters shadow 19:56:16 - 116° (ESE) 2,586 4.3 -13.2°
